Regional Weather Roundup
Issued by NWS

Home | Current Version | Previous Version | Text Only | Print | Product List | Glossary Off
Versions: 1 2 3 4 5 6 7 8 9 10 11 12 13 14 15 16 17 18 19 20 21 22 23 24 25 26 27 28 29 30 31 32 33 34 35 36 37 38 39 40 41 42 43 44 45 46 47 48 49 50

000
ASUS43 KMPX 262210
RWRMN
WEATHER ROUNDUP FOR MINNESOTA
NATIONAL WEATHER SERVICE TWIN CITIES/CHANHASSEN MN
500 PM CDT TUE AUG 26 2014


NOTE: "FAIR" INDICATES FEW OR NO CLOUDS BELOW 12,000 FEET WITH NO
SIGNIFICANT WEATHER AND/OR OBSTRUCTIONS TO VISIBILITY. N/A MEANS
CURRENT SKY AND/OR WEATHER CONDITIONS ARE NOT AVAILABLE.

MNZ060>063-068>070-262300-
   Twin Cities Metro

CITY           SKY/WX    TMP DP  RH WIND       PRES   REMARKS
TWIN CITIES    PTSUNNY   74  49  41 NW8       30.15S
ST PAUL        SUNNY     73  50  44 N6        30.14F
CRYSTAL        MOSUNNY   76  51  41 VRB3      30.13F
BLAINE         MOSUNNY   73  52  46 NW3       30.15S
LAKEVILLE      SUNNY     72  52  49 W3        30.15S
EDEN PRAIRIE   SUNNY     72  51  47 CALM      30.14F
SOUTH ST PAUL  SUNNY     72  48  42 NE3       30.14F
LAKE ELMO      FAIR      70  52  52 NW3       30.16S
$$
MNZ001>005-007-008-013>017-022>024-027-028-262300-
   Northwest Minnesota

CITY           SKY/WX    TMP DP  RH WIND       PRES   REMARKS
BEMIDJI        PTSUNNY   62  47  57 W9        30.16F
HALLOCK        SUNNY     64  46  52 CALM      30.13F
ROSEAU         MOSUNNY   61  48  63 W8        30.16S
WARROAD        CLOUDY    57  48  72 W5        30.17R
THIEF RVR FALL MOSUNNY   63  45  51 W6        30.15F
CROOKSTON      MOSUNNY   66  52  59 NW8       30.16S
FOSSTON        PTSUNNY   64  46  52 W7        30.17S
DETROIT LAKES  CLOUDY    64  50  59 NW7       30.18S
MOORHEAD       CLOUDY    70  54  56 NW7       30.16S
PARK RAPIDS    CLOUDY    64  49  57 NW5       30.17R
MAHNOMEN       MOCLDY    63  50  62 NW6       30.17S
$$
MNZ006-009>011-018-025>026-262300-
   North Central Minnesota

CITY           SKY/WX    TMP DP  RH WIND       PRES   REMARKS
BAUDETTE       CLOUDY    58  47  66 VRB6      30.16S
FLAG ISLAND    PTSUNNY   59  48  67 W12       30.13S
INTL FALLS     CLOUDY    57  48  72 W7        30.15S
WASKISH        CLOUDY    59  50  72 CALM      30.17S
BIG FORK       PTSUNNY   61  48  63 W5        30.17F
LONGVILLE      PTSUNNY   63  50  63 NW3       30.16F
GRAND RAPIDS   CLOUDY    63  46  55 NW12      30.16S
CRANE LAKE     CLOUDY    59  48  67 NW6       30.15S
ORR            CLOUDY    61  46  59 NW10      30.13R
COOK           CLOUDY    63  48  59 W9        30.15R
WALKER         MOCLDY    61  48  60 W5        30.17R
$$
MNZ012-019>021-037-262300-
   Northeast Minnesota

CITY           SKY/WX    TMP DP  RH WIND       PRES   REMARKS
DULUTH         MOSUNNY   67  48  50 NW14      30.13R
ELY            PTSUNNY   61  46  59 W8        30.12F
HIBBING        PTSUNNY   63  48  58 NW9       30.15R
EVELETH        PTSUNNY   63  46  55 W9        30.15S
DULUTH HARBOR  MOSUNNY   72  52  49 NW16      30.12R
TWO HARBORS    MOSUNNY   66  48  52 W6        30.09S
SILVER BAY     MOSUNNY   66  54  63 NW8       30.08S
GRAND MARAIS     N/A     66  49  54 MISG      30.08R
G MARAIS ARPRT CLOUDY    57  45  62 W10       30.11S
$$
MNZ029>031-032-039>041-046>048-054>057-064-262300-
   West Central Minnesota

CITY           SKY/WX    TMP DP  RH WIND       PRES   REMARKS
FERGUS FALLS   PTSUNNY   66  48  52 NW6       30.17S
WHEATON        PTSUNNY   63  52  67 CALM      30.19F
MORRIS         PTSUNNY   64  52  63 N3        30.17F
ALEXANDRIA     CLOUDY    65  52  62 W5        30.18F
ELBOW LAKE     FAIR      65  54  68 NW3       30.16F
WADENA         CLOUDY    64  52  63 NW7       30.16F
GLENWOOD       PTSUNNY   64  54  68 W6        30.19R
APPLETON       PTSUNNY   68  54  60 W3        30.17S
BENSON         PTSUNNY   66  54  63 N3        30.18S
ORTONVILLE     LGT RAIN  64  52  63 CALM      30.17F
MADISON        PTSUNNY   68  55  64 CALM      30.18S
WILLMAR        FAIR      68  55  64 W7        30.18S
$$
MNZ033>034-036-042>043-049>051-058-059-262300-
   Central Minnesota

CITY           SKY/WX    TMP DP  RH WIND       PRES   REMARKS
ST CLOUD       PTSUNNY   72  52  49 NW5       30.15R
SAUK CENTRE    MOCLDY    65  53  65 W7        30.18S
PAYNESVILLE    PTSUNNY   66  52  61 CALM      30.17S
AITKIN         PTSUNNY   70  54  56 W3        30.15R
PINE RIVER     PTSUNNY   63  52  67 N3        30.20R
BRAINERD       PTSUNNY   65  50  58 N7        30.16S
STAPLES        CLOUDY    64  50  59 NW7       30.16F
LONG PRAIRIE   FAIR      64  50  59 W5        30.18S
LITTLE FALLS   CLOUDY    64  48  55 W6        30.16S
LITCHFIELD     MOSUNNY   72  55  56 W3        30.17S
BUFFALO        MOSUNNY   71  51  50 W6        30.16F
MAPLE LAKE     MOSUNNY   71  56  58 W5        30.16F
$$
MNZ037-044-045-052-053-262300-
   East Central Minnesota

CITY           SKY/WX    TMP DP  RH WIND       PRES   REMARKS
PRINCETON      PTSUNNY   72  52  49 W5        30.16R
MORA           PTSUNNY   64  52  63 N5        30.16F
CAMBRIDGE      PTSUNNY   72  54  53 W3        30.13S
RUSH CITY      MOSUNNY   69  53  57 NW5       30.14F
MOOSE LAKE     MOSUNNY   68  50  52 NW5       30.13S
HINCKLEY       FAIR      68  52  56 W6        30.15R
CLOQUET        MOSUNNY   66  48  52 W12       30.14R
MCGREGOR       PTSUNNY   64  50  59 W8        30.15F
$$
MNZ071>073-080-081-089-090-097-098-262300-
   Southwest Minnesota

CITY           SKY/WX    TMP DP  RH WIND       PRES   REMARKS
MONTEVIDEO     PTSUNNY   70  55  60 N5        30.18S
GRANITE FALLS  PTSUNNY   69  55  62 CALM      30.18S
CANBY          PTSUNNY   67  55  64 CALM      30.19S
MARSHALL       MOSUNNY   72  52  49 SW6       30.17R
REDWOOD FALLS  MOSUNNY   72  53  51 VRB3      30.16F
OLIVIA         MOSUNNY   72  54  53 NW5       30.16F
PIPESTONE      SUNNY     70  54  56 SW3       30.18F
WINDOM         MOSUNNY   70  54  56 CALM      30.18S
WORTHINGTON    MOSUNNY   70  54  56 SE3       30.20S
JACKSON        MOSUNNY   70  52  52 CALM      30.18F
TRACY          MOSUNNY   71  55  55 CALM      30.18S
SLAYTON        PTSUNNY   68  53  57 CALM      30.19F
$$
MNZ065>067-074>077-082>085-091>093-262300-
   South Central Minnesota

CITY           SKY/WX    TMP DP  RH WIND       PRES   REMARKS
MANKATO        PTSUNNY   70  52  52 CALM      30.17S
NEW ULM        PTSUNNY   70  55  60 CALM      30.16F
ST JAMES       PTSUNNY   73  52  46 CALM      30.18S
FAIRMONT       MOSUNNY   68  52  56 CALM      30.17F
GLENCOE        MOSUNNY   74  51  44 SW6       30.15F
FARIBAULT      MOSUNNY   75  46  35 CALM      30.17S
OWATONNA       MOSUNNY   72  52  49 CALM      30.16F
WASECA         MOSUNNY   70  50  49 NW3       30.18F
ALBERT LEA     MOSUNNY   73  54  49 NW5       30.17S
$$
MNZ078>079-086>088-094>096-262300-
   Southeast Minnesota

CITY           SKY/WX    TMP DP  RH WIND       PRES   REMARKS
ROCHESTER      SUNNY     73  53  49 NW5       30.17R
RED WING       SUNNY     73  48  40 CALM      30.13F
STANTON        SUNNY     72  51  46 W3        30.14F
DODGE CENTER   SUNNY     70  55  60 N3        30.17S
WINONA         SUNNY     73  54  49 N3        30.14S
AUSTIN         SUNNY     72  55  56 N5        30.16S
PRESTON        SUNNY     69  60  73 CALM      30.17R
$$
ABBREVIATIONS USED IN REMARKS
   TC - TEMPERATURES IN CELSIUS
  WCI - WIND CHILL INDEX
   HX - HEAT INDEX
  VSB - VISIBILITY
$$


USA.gov is the U.S. government's official web portal to all federal, state and local government web resources and services.